Simultaneous Nadir Overpasses (SNOs) Predictions

Prediction of SNOs between AQUA and NOAA-19 Satellite Orbit:

Table of predicted SNOs for the next 14.0 days since TLE Epoch: 8/31/2018
Index Date (AQUA) Time (AQUA) Lat,Lon (AQUA) SZA (AQUA ) Date (NOAA-19) Time (NOAA-19) Lat,Lon (NOAA-19) SZA (NOAA-19 ) Distance(km) Time Diff (sec)
1 08/31/2018 21:26:25 80.79,-179.80 74.38 08/31/2018 21:25:15 80.63, 178.29 74.49 38.62 70
2 08/31/2018 22:15:49 -80.74, -11.59 105.71 08/31/2018 22:16:06 -80.73, -11.72 105.72 3.07 17
3 09/03/2018 03:49:31 80.73, 85.18 75.05 09/03/2018 03:49:40 80.73, 85.10 75.06 1.38 9
4 09/05/2018 09:23:11 -80.73,-178.26 104.15 09/05/2018 09:23:11 -80.73,-178.31 104.15 0.86 0
5 09/07/2018 14:56:53 80.72, -81.55 76.64 09/07/2018 14:56:44 80.73, -81.63 76.66 1.88 9
6 09/09/2018 20:30:34 -80.72, 15.00 102.54 09/09/2018 20:30:17 -80.72, 14.99 102.53 0.73 17
7 09/09/2018 21:19:58 80.63,-176.31 77.30 09/09/2018 21:21:12 80.78,-175.96 77.36 17.95 74
8 09/12/2018 02:04:16 80.71, 111.65 78.27 09/12/2018 02:03:49 80.72, 111.52 78.30 2.57 27
9 09/12/2018 02:53:43 -80.74, -81.09 101.66 09/12/2018 02:54:50 -80.73, -80.97 101.71 2.82 67
10 09/14/2018 07:37:57 -80.71,-151.81 100.90 09/14/2018 07:37:23 -80.72,-151.84 100.88 0.73 34




NCC Satellite Simultaneous Nadir Overpasses (SNOs) Prediction Service
